Regional Weather Roundup
Issued by NWS

Home | Current Version | Previous Version | Graphics & Text | Print | Product List | Glossary On
Versions: 1 2 3 4 5 6 7 8 9 10 11 12 13 14 15 16 17 18 19 20 21 22 23 24 25 26 27 28 29 30 31 32 33 34 35 36 37 38 39 40 41 42 43 44 45 46 47 48 49 50
000
ASUS43 KLOT 180912
RWRIL

ILLINOIS REGIONAL WEATHER ROUNDUP
NATIONAL WEATHER SERVICE CHICAGO/ROMEOVILLE IL
300 AM CST WED JAN 18 2017

NOTE: "FAIR" INDICATES FEW OR NO CLOUDS BELOW 12,000 FEET WITH NO
SIGNIFICANT WEATHER AND/OR OBSTRUCTIONS TO VISIBILITY.

* THESE STATIONS ARE NOT UNDER NWS QUALITY CONTROL. THEY ALSO MAY NOT
  REPORT WEATHER SUCH AS PRECIPITATION OR FOG.

ILZ001-002-007-009-015-016-024-181000-
NORTHWEST ILLINOIS

CITY           SKY/WX    TMP DP  RH WIND       PRES   REMARKS
MOLINE         CLOUDY    35  32  88 W7        30.13R FOG     WCI  29
STERLING*      CLOUDY    33  32  96 W13       30.11R FOG     WCI  24
SAVANNA*       CLOUDY    33  32  96 W6        30.11R FOG     WCI  27
$$

ILZ003-004-008-010-011-017-018-181000-
NORTH CENTRAL ILLINOIS

CITY           SKY/WX    TMP DP  RH WIND       PRES   REMARKS
ROCKFORD       FOG       35  33  92 W6        30.09R VSB 1   WCI  30
FREEPORT*      FOG       33  33  99 W7        30.09R VSB 1   WCI  27
ROCHELLE*      CLOUDY    33  33  99 W8        30.09R FOG     WCI  26
DE KALB*       FOG       33  33  99 W12       30.08R VSB 1/2 WCI  25
$$

ILZ005-006-012>014-019>023-181000-
NORTHEAST ILLINOIS

CITY           SKY/WX    TMP DP  RH WIND       PRES   REMARKS
CHICAGO-OHARE  CLOUDY    34  33  96 W10       30.05R FOG     WCI  26
CHICAGO-MIDWAY CLOUDY    33  32  96 W12       30.07R FOG     WCI  24
AURORA         CLOUDY    35  33  92 W13       30.08R FOG     WCI  26
LANSING*       CLOUDY    34  34 100 W10       30.08S FOG     WCI  26
JOLIET*        CLOUDY    35  34  97 W7        30.10R FOG     WCI  29
WAUKEGAN       CLOUDY    34  33  96 W5        30.04R WCI  30
DUPAGE AIRPORT CLOUDY    34  32  92 W12       30.06R FOG     WCI  25
KANKAKEE*      CLOUDY    34  32  93 W12       30.11S WCI  25
WHEELING       CLOUDY    35  33  92 W7        30.07R WCI  29
MORRIS*        CLOUDY    34  33  95 W10       30.10R FOG     WCI  26
ROMEOVILLE*    CLOUDY    33  33 100 W9        30.08R FOG     WCI  26
NORTHERLY ISL    N/A     35  33  92 SW6         N/A  WCI  30
$$

LMZ740>746-181000-
SOUTHERN LAKE MICHIGAN

STATION/POSITION SKY/WX   TEMP    WIND        PRES    VSBY  WAVE
                          AIR SEA DIR/SP/G                  HT/PER
                          (F)     (DEG/KT/KT) (MB)    (MI)  (FT/S)
HARRISON CRIB              36     260/ 15/ 16   N/A
BURNHAM HARBOR             35     220/  7/ 12   N/A
CALUMET HARBOR             35     240/  5/ 10 1017.7R
BURNS HARBOR               35     240/ 10/ 14 1018.6R
$$

ILZ025>027-034>036-040-047-049-050-058-095>099-181000-
WEST-CENTRAL ILLINOIS

CITY           SKY/WX    TMP DP  RH WIND       PRES   REMARKS
QUINCY         CLOUDY    35  31  85 W7        30.18R WCI  29
GALESBURG*     CLOUDY    35  35 100 W5        30.14S FOG     WCI  31
MACOMB*        CLOUDY    36  35  96 W8        30.18R WCI  29
JACKSONVILLE*  CLOUDY    37  33  87 W12       30.18R WCI  29
PITTSFIELD*    CLOUDY    37  33  85 W10       30.19S WCI  30
$$

ILZ028>032-037-038-041>044-048-051>054-059>061-181000-
CENTRAL ILLINOIS

CITY           SKY/WX    TMP DP  RH WIND       PRES   REMARKS
PONTIAC        CLOUDY    34  34 100 W14       30.13S WCI  25
BLOOMINGTON    CLOUDY    33  33 100 W10       30.13S FOG     WCI  25
DECATUR        CLOUDY    37  36  96 W15G22    30.16R WCI  28
PEORIA         CLOUDY    35  34  96 W7        30.15R FOG     WCI  29
LACON*         CLOUDY    33  33  98 W7        30.13S FOG     WCI  27
LINCOLN*       CLOUDY    37  37  97 W3        30.16R
SPRINGFIELD    CLOUDY    39  35  86 W13       30.17R WCI  31
TAYLORVILLE    CLOUDY    37  34  90 W14       30.18R WCI  28
$$

ILZ033-039-045-046-055>057-062-063-181000-
EAST-CENTRAL ILLINOIS

CITY           SKY/WX    TMP DP  RH WIND       PRES   REMARKS
CHAMPAIGN      CLOUDY    37  34  89 W16       30.14R WCI  28
RANTOUL*       CLOUDY    37  36  96 W10       30.13S FOG     WCI  29
MATTOON        CLOUDY    37  35  92 W13       30.15R WCI  29
PARIS*         CLOUDY    37  36  96 W12       30.16R WCI  29
$$

ILZ079-100>102-181000-
SOUTHWEST ILLINOIS

CITY           SKY/WX    TMP DP  RH WIND       PRES   REMARKS
ALTON          CLOUDY    37  34  87 W9G18     30.19S WCI  31
BELLEVILLE     CLOUDY    40  38  93 NW8       30.18S
CAHOKIA*       CLOUDY    40  33  76 W9        30.19S
SPARTA*        CLOUDY    39  36  89 NW5       30.21R
$$

ILZ064>066-069>071-074>076-080>082-084>086-088>090-092>094-181000-
SOUTH-CENTRAL ILLINOIS

CITY           SKY/WX    TMP DP  RH WIND       PRES   REMARKS
CARBONDALE     CLOUDY    40  37  89 NW7       30.19S
CAIRO*         CLOUDY    43  38  85 N7        30.19R
EFFINGHAM*     CLOUDY    38  38  98 W12G17    30.19S WCI  31
MARION         CLOUDY    41  39  93 NW5       30.20R
MT. VERNON     CLOUDY    40  36  86 VRB6      30.19R
CENTRALIA*     CLOUDY    39  37  91 NW12G17   30.19R WCI  32
SALEM*         CLOUDY    40  37  87 W8        30.18S
METROPOLIS*    CLOUDY    43  38  84 CALM      30.19R
$$

ILZ067-068-072-073-078-083-087-091-181000-
SOUTHEAST ILLINOIS

CITY           SKY/WX    TMP DP  RH WIND       PRES   REMARKS
LAWRENCEVILLE  CLOUDY    39  37  92 NW12      30.17S WCI  32
FLORA*         CLOUDY    41  37  87 NW12      30.19S
FAIRFIELD*     CLOUDY    40  37  87 NW6       30.18S
HARRISBURG*    CLOUDY    40  37  89 NW9       30.20S
ROBINSON*      CLOUDY    38  37  95 W13       30.18S WCI  30
CARMI*         CLOUDY    40  37  89 W10       30.18S
$$

ABBREVIATIONS USED IN REMARKS
   TC - TEMPERATURE IN CELSIUS
  WCI - WIND CHILL INDEX
   HX - HEAT INDEX
  VSB - VISIBILITY
$$




USA.gov is the U.S. government's official web portal to all federal, state and local government web resources and services.